Location: Hermaringen
(48.5952°N, 10.2585°E)
Time: 09:52:40
(UTC+00:00)

Injun/Solrad 3 - Pass Details

Date: 19 February 2026
Orbit: 872 x 984 km, 66.8° (Epoch: 9 March)

Event Time Altitude Azimuth Distance (km) Brightness Sun altitude
Rises 18:26:05 0° 325° (NW) 3,564 11.5 -17.1°
Reaches altitude 10° 18:28:35 10° 327° (NNW) 2,635 10.7 -17.5°
Maximum altitude 18:34:44 75° 53° (NE) 982 7.9 -18.5°
Enters shadow 18:38:54 23° 136° (SE) 1,935 9.1 -19.2°
